Weather in Sotnikovo

Russia / Republic of Buryatia     51°52′52″N   107°28′30″E
temp.,
°C
wind,
m/s
gust,
m/s
humid.,
%
clouds,
%
prec.,
mm/h
press.,
hPa
HPBL,
m
26 february, fri
fri2623:00−12sse2395100 0.0 101383
02:00−13s2296100 0.1 101353
05:00−13nw2295100 0.0 101466
08:00−14nnw3896100 0.1 1016310
11:00−11nw4687100 0.1 1016590
14:00−11nw4691100 0.9 1014556
17:00−11nw41092100 1.4 1015718
20:00−12wnw61292100 2.1 1019719
27 february, sat
sat2723:00−15wnw61292100 0.2 1022706
02:00−17nw81391100 0.5 1025811
05:00−20wnw4119495 0.1 1030446
08:00−24wnw259983 0.1 1034130
11:00−19nw377663 0.0 1036759
14:00−17wnw576742 0.0 10351333
17:00−18nw367289 0.0 1035947
20:00−24nw118847 0.0 103820
28 february, sun
sun2823:00−25wsw118730 0.0 103920
02:00−26wsw018428 0.0 104020
05:00−26nne118386 0.0 104119
08:00−28se118355 0.0 104219
11:00−19sse227716 0.0 1041261
14:00−16s237912 0.0 1039508
17:00−16s228570 0.1 1038372
20:00−22ssw119657 0.1 104120
1 march, mon
mon123:00−23s22960 0.0 104120
02:00−24sse229739 0.0 104029
05:00−25sse229974 0.0 103935
08:00−26sse239985 0.0 103858
11:00−21s3495100 0.0 1034270
14:00−16s348384 0.1 1030345
17:00−15s358613 0.0 1028333
20:00−20sse23938 0.0 102835
2 march, tue
tue223:00−21sse239852 0.0 102655
02:00−21sse239876 0.0 102464
05:00−23sse229887 0.0 102235
08:00−24sse229990 0.0 102337
11:00−18sse239095 0.0 1020244
14:00−13s238287 0.0 1017309
17:00−12s238873 0.0 1015224
20:00−15sse229285 0.0 101633